Weather History for Columbus AFB, MS

Change the Weather History Date:

Sunday, January 12, 2014

  Actual Average Record
Temperature  
Mean Temperature 44 °F -  
Max Temperature 61 °F 51 °F 76 °F (2013)
Min Temperature 28 °F 33 °F 17 °F (1997)
Degree Days  
Heating Degree Days 20    
Moisture  
Dew Point 32 °F    
Average Humidity 70    
Maximum Humidity 100    
Minimum Humidity 30    
Precipitation  
Precipitation 0.00 in - - ()
Sea Level Pressure  
Sea Level Pressure 30.12 in    
Wind  
Wind Speed 4 mph (South)    
Max Wind Speed 12 mph    
Max Gust Speed -    
Visibility 10 miles    
Events      
Averages and records for this station are not official NWS values.
T = Trace of Precipitation, MM = Missing Value Source: NWS Daily Summary

Daily Weather History Graph

Daily Weather History Graph

Search for Another Location

Airport:

Trip Planner

Search our weather history database for the weather conditions in past years. The results will help you decide how hot, cold, wet, or windy it might be!

Date:

Astronomy

Jan. 12, 2014 Rise Set
Actual Time 6:58 AM CST 5:05 PM CST
Civil Twilight 6:31 AM CST 5:32 PM CST
Nautical Twilight 6:00 AM CST 6:03 PM CST
Astronomical Twilight 5:30 AM CST 6:33 PM CST
Moon 2:32 PM CST (1/12) 3:58 AM CST (1/12)
Length of Visible Light 11h 01m
Length of Day
10h 07m
Waxing Gibbous, 90% of the Moon is Illuminated
Jan 12
Waxing Gibbous
Jan 15
Full
Jan 23
Last Quarter
Jan 30
New
Feb 6
First Quarter

Hourly Weather History & Observations

Time (CST) Temp. Windchill Dew Point Humidity Pressure Visibility Wind Dir Wind Speed Gust Speed Precip Events Conditions
12:58 AM 34.2 °F - 33.6 °F 98% 30.06 in 10.0 mi SSE 2.3 mph - N/A   Clear
1:58 AM 33.8 °F - 33.3 °F 98% 30.07 in 10.0 mi Variable 2.3 mph - N/A   Clear
2:58 AM 31.5 °F - 30.6 °F 96% 30.10 in 10.0 mi WSW 2.3 mph - N/A   Clear
3:58 AM 30.6 °F - 29.8 °F 97% 30.12 in 10.0 mi Calm Calm - N/A   Clear
4:58 AM 29.5 °F - 28.6 °F 96% 30.13 in 10.0 mi Calm Calm - N/A   Clear
5:58 AM 30.2 °F - 29.5 °F 97% 30.14 in 10.0 mi Calm Calm - N/A   Clear
6:13 AM 28.4 °F - 28.4 °F 100% 30.14 in 2.5 mi SE 1.2 mph - N/A   Clear
6:23 AM 28.4 °F - 28.4 °F 100% 30.14 in 6.0 mi SE 2.3 mph - N/A   Clear
6:58 AM 29.7 °F - 29.1 °F 98% 30.17 in 10.0 mi Calm Calm - N/A   Clear
7:58 AM 31.5 °F - 30.9 °F 98% 30.19 in 10.0 mi SE 2.3 mph - N/A   Clear
8:58 AM 40.8 °F - 37.2 °F 87% 30.20 in 10.0 mi Variable 1.2 mph - N/A   Clear
9:58 AM 47.8 °F - 38.3 °F 70% 30.22 in 10.0 mi Variable 3.5 mph - N/A   Clear
10:58 AM 54.3 °F - 35.6 °F 49% 30.19 in 10.0 mi South 6.9 mph - N/A   Clear
11:58 AM 57.2 °F - 32.7 °F 40% 30.14 in 10.0 mi South 9.2 mph - N/A   Clear
12:58 PM 59.2 °F - 31.6 °F 35% 30.11 in 10.0 mi SSW 6.9 mph - N/A   Clear
1:58 PM 60.6 °F - 29.8 °F 31% 30.10 in 10.0 mi SSW 8.1 mph - N/A   Clear
2:58 PM 61.2 °F - 29.5 °F 30% 30.08 in 10.0 mi SSW 10.4 mph - N/A   Clear
3:58 PM 60.1 °F - 32.2 °F 35% 30.09 in 10.0 mi South 9.2 mph - N/A   Clear
4:58 PM 54.9 °F - 32.5 °F 43% 30.09 in 10.0 mi South 5.8 mph - N/A   Clear
5:58 PM 46.2 °F 43.3 °F 32.2 °F 58% 30.09 in 10.0 mi SSE 5.8 mph - N/A   Clear
6:58 PM 42.3 °F 37.3 °F 32.5 °F 68% 30.09 in 10.0 mi SSE 8.1 mph - N/A   Clear
7:58 PM 42.4 °F 37.0 °F 32.4 °F 68% 30.09 in 10.0 mi SSE 9.2 mph - N/A   Clear
8:58 PM 40.3 °F 35.5 °F 31.5 °F 71% 30.09 in 10.0 mi SSE 6.9 mph - N/A   Clear
9:58 PM 42.3 °F 37.9 °F 32.5 °F 68% 30.07 in 10.0 mi South 6.9 mph - N/A   Clear
10:58 PM 51.1 °F - 32.7 °F 50% 30.05 in 10.0 mi South 11.5 mph - N/A   Mostly Cloudy
11:58 PM 50.9 °F - 32.7 °F 50% 30.06 in 10.0 mi South 9.2 mph - N/A   Mostly Cloudy